IRIDIUM 33 DEB, 46965

Orbit data source: Space-Track

IRIDIUM 33 DEB, 46965 is space debris in LEO originally from a launch on Sun, 14 Sep 1997 UTC launched from the Tyuratam Missile And Space Complex (TTMTR). The debris from Iridium 33, an American commercial communications satellite, has been tracked extensively since its accidental collision with the defunct Russian satellite Cosmos 2251 in 2009. This event, occurring at high speed in low Earth orbit (LEO), generated thousands of pieces of space debris, significantly increasing the risk of further collisions. The Iridium 33 debris cloud has impacted space traffic management and orbital debris mitigation strategies, making it a subject of ongoing study in space situational awareness.

Loading next visibility...
Identifier
46965, 1997-051ABX
Orbit
LEO
Country
Flag of USUS
Related business
Manufacturer
Unknown
Mission
Spacecraft
Bus & Motor
Unknown
Mass
Unknown
Launch date (UTC)
1997-09-14 (29 years ago)
Launch vehicle
Unknown
Launch site
Tyuratam Missile And Space Complex (TTMTR)
Object type
Payload
Rocket body
Debris
Shape & HBR
Unknown shape, 0.1 m
Radar Cross Section
Small (<0.1 m²)

Expand to show TLE details & history
Last TLE update: 1 day ago

TLE from 1 day ago
0 IRIDIUM 33 DEB
1 46965U 97051ABX 26119.41695211  .00003543  00000-0  71116-3 0  9994
2 46965  86.3300 279.5727 0018090 211.9322 179.7492 14.61348107642780
Epoch: 2026-04-29T10:00Z
TLE epoch observation values (Epoch: 2026-04-29T10:00:24.662Z)
Latitude
31.66716°
Longitude
-85.65303°
Altitude
705.8 km
Speed
7.499 km/s
True Right ascension
18h 47m 18s
True Declination
31° 30' 45"
Sunlit
Object was in daylight at epoch
Visualization orbit readout
Latitude
Unknown
Longitude
Unknown
Altitude
Unknown
Speed
Unknown
Apparent Right ascension
Unknown
Apparent Declination
Unknown
Sunlit
N/A
Visualization observer readout
Local Sidereal Time
22:55:14
Azimuth
Unknown
Elevation
Unknown
Doppler factor
Unknown
Orbital elements
Apogee altitude
698.531 km
Perigee altitude
672.973 km
Semi-major axis
7,063.889 km
Eccentricity
0.00181
Inclination
86.33°
RAAN
279.5727°
Arg. of periapsis
211.9322°
True anomaly
179.75011°
Mean anomaly
179.7492°
Eccentric anomaly
179.74965°
Mean motion
3.65576 °/min
Orbital period
98.47 mins
BSTAR
0.00071116
Loading maneuver chart data...
Computing Atmospheric mass density...

Documentation

Showing up to 5 results
|